Regional Weather Roundup
Issued by NWS Jackson, KY

Home | Current Version | Previous Version | Graphics & Text | Print | Product List | Glossary On
Versions: 1 2 3 4 5 6 7 8 9 10 11 12 13 14 15 16 17 18 19 20 21 22 23 24 25 26 27
000
ASUS43 KJKL 201710
RWRJKL

EAST KENTUCKY HOURLY WEATHER ROUNDUP
NATIONAL WEATHER SERVICE JACKSON KY
1200 PM EST MON FEB 20 2017

NOTE: "FAIR" INDICATES FEW OR NO CLOUDS BELOW 12,000 FEET WITH
NO SIGNIFICANT WEATHER AND/OR OBSTRUCTIONS TO VISIBILITY.

* THESE REPORTS ARE NOT UNDER NWS QUALITY CONTROL AND MAY NOT
  REPORT WEATHER SUCH AS PRECIPITATION AND FOG.

KYZ079-080-083-085-087-088-110-112-115-119-120-201800
...EASTERN KENTUCKY...

CITY           SKY/WX    TMP DP  RH WIND       PRES   REMARKS
JACKSON        CLOUDY    62  46  55 VRB3      30.22F
LONDON         MOSUNNY   64  44  48 VRB6      30.21F
SOMERSET*      MOSUNNY   63  45  51 E7        30.21F
MONTICELLO*    CLOUDY    64  48  56 E6        30.20F
WILLIAMSBURG*  MOSUNNY   63  46  55 SE6       30.20F
MIDDLESBORO*   SUNNY     53  47  81 CALM      30.23F
HARLAN APT*    SUNNY     61  43  51 CALM      30.22F
PIKE CO APT*     N/A     59  45  61 CALM      30.23F
BIG SANDY APT* CLOUDY    61  46  58 CALM      30.23F
MOREHEAD APT*  CLOUDY    61  46  59 VRB7      30.24F
ASHLAND*       CLOUDY    45  45 100 CALM      30.25F
$$

KYZ035-036-041-042-044-050-067-078-099-201800
...CENTRAL KENTUCKY...

CITY           SKY/WX    TMP DP  RH WIND       PRES   REMARKS
MT STERLING*   MOSUNNY   61  48  63 SE6       30.23S
FLEMING/MASON* CLOUDY    55  49  81 E3        30.25R
DANVILLE*      CLOUDY    63  50  63 CALM      30.21S
LEXINGTON      MOSUNNY   63  47  55 S7        30.21S
FRANKFORT      MOSUNNY   58  47  66 CALM      30.19F
LOUISVILLE     CLOUDY    57  47  69 VRB3      30.19F
LEBANON*         N/A     64  48  55 SE7       30.20S
GLASGOW*       CLOUDY    66  49  54 SE6       30.18S
BOWLING GREEN  MOSUNNY   65  52  62 E5        30.17F
$$

KYZ091>093-OHZ055-061-077-WVZ005-015-034-035-042-201800
...SOUTHERN OHIO/WEST VIRGINIA...

CITY           SKY/WX    TMP DP  RH WIND       PRES   REMARKS
COVINGTON      CLOUDY    56  48  74 SE9       30.21F
COLUMBUS       FOG       46  44  93 CALM      30.27S VSB 1/4
DAYTON         PTSUNNY   48  46  93 E3        30.25F FOG
WILMINGTON     MOSUNNY   56  48  74 SE10      30.24S
HUNTINGTON     PTSUNNY   48  45  89 CALM      30.25F FOG
CHARLESTON     CLOUDY    48  44  86 CALM      30.26S
PINEVILLE*     CLOUDY    59  41  50 MISG      30.29F
BECKLEY        CLOUDY    58  43  57 W3        30.25F
BLUEFIELD      CLOUDY    59  31  34 CALM      30.25F
LOGAN CO APT*    N/A     59  46  63 CALM      30.24F
$$

VAZ002-007-008-TNZ017-027-036-066-071-201800
...SOUTHWEST VIRGINIA/EAST TENNESSEE...

CITY           SKY/WX    TMP DP  RH WIND       PRES   REMARKS
WISE*          SUNNY     64  34  32 CALM      30.24F
JONESVILLE*      N/A     64  45  48 CALM      30.24F
ABINGDON*      SUNNY     64  40  41 E7        30.23F
BRISTOL        MOSUNNY   60  45  57 CALM      30.22F
MORRISTOWN*    SUNNY     63  46  55 NE6       30.20F
SEVIERVILLE*   SUNNY     61  45  55 CALM      30.20F
KNOXVILLE      CLOUDY    62  45  53 CALM      30.21F
LAFOLLETTE*    SUNNY     61  48  63 CALM      30.25F
OAK RIDGE      MOSUNNY   62  46  55 CALM      30.22F
CROSSVILLE     MOSUNNY   61  43  51 SE8       30.22F
NASHVILLE      CLOUDY    67  47  48 S7        30.17S
$$

...KEY TO REMARKS...
VSB - VISIBILITY IN MILES
WCI - WIND CHILL INDEX
HX  - HEAT INDEX

$$




USA.gov is the U.S. government's official web portal to all federal, state and local government web resources and services.